Meath Environmental Platform

Observations for Trim Market St

Time AQI Temp °C Hum % Pres Pa CO μg/m³ H₂S μg/m³ NO μg/m³ NO₂ μg/m³ O₃ μg/m³ SO₂ μg/m³ PM1 μg/m³ PM2.5 μg/m³ PM10 μg/m³
Tuesday 18 August 2026
03:26 2 18.6 77 14,214 0.03 0 1.82 2.98 52.11 0 0.71 2.24 5.19
03:23 2 18.6 77 12,848 0.03 0 1.82 3.08 50.5 0 0.71 1.29 3.44
03:20 2 18.7 77 9,972 0.02 0 1.8 3.06 54.22 0 0 1.28 4.03
03:17 2 18.6 77 9,624 0.03 0 1.82 3.22 52.26 0 0 1.76 4.03
03:16 2 18.7 77 9,599 0.02 0 1.8 3.57 66.14 0 0 1.76 4.03
03:07 2 18.7 77 10,550 0 0 1.79 2.87 51.73 0 0 1.29 5.19
03:06 2 18.7 77 10,824 0.02 0 1.79 3.45 57.07 0 0.71 1.76 4.03
03:05 2 18.7 77 11,264 0 0 1.8 2.88 55.55 0 0.71 2.24 5.19
03:04 2 18.7 77 11,737 0 0 1.82 3.47 54.49 0 0.71 2.24 4.61
03:03 2 18.7 77 12,255 0 0 1.8 3.18 53.68 0 0.71 1.29 3.44
03:01 2 18.8 77 13,137 0 0 1.82 3.34 57.93 0 0.71 2.24 4.61
02:59 2 18.8 77 13,772 0 0 1.82 2.83 52.82 0 0.71 1.77 4.02
02:58 2 18.8 77 14,179 0.01 0 1.82 2.93 55.86 0 0.71 1.77 4.02
02:57 2 18.8 77 14,529 0 0 1.82 2.86 51.9 0 0.71 2.25 4.6
02:56 2 18.9 77 14,789 0.01 0 1.78 3.11 54.67 0 0.71 2.25 4.6
02:51 2 19 77 14,421 0 0 1.82 2.52 51.84 0 0.71 1.77 4.02
02:49 2 19 77 13,559 0.02 0 1.83 2.74 52.2 0 0.71 1.76 4.03
02:47 2 19 77 12,396 0.02 0 1.81 2.66 53.03 0 0.71 1.29 4.03
02:43 2 19.1 77 9,257 0.02 0 1.82 2.51 52.19 0 0.71 2.71 5.2
02:38 2 19.1 78 5,325 0.02 0 1.84 2.35 53.48 0 0.71 2.22 5.2